Regional Weather Roundup
Issued by NWS

Home | Current Version | Previous Version | Graphics & Text | Print | Product List | Glossary On
Versions: 1 2 3 4 5 6 7 8 9 10 11 12 13 14 15 16 17 18 19 20 21 22 23 24 25 26 27 28 29 30 31 32 33 34 35 36 37 38 39 40 41 42 43 44 45 46 47 48 49 50
000
ASUS43 KDMX 301807
RWRIA

WEATHER ROUNDUP FOR IOWA
NATIONAL WEATHER SERVICE DES MOINES IA
100 PM CDT SUN AUG 30 2015

NOTE: "FAIR" INDICATES FEW OR NO CLOUDS BELOW 12,000 FEET WITH NO
SIGNIFICANT WEATHER AND/OR OBSTRUCTIONS TO VISIBILITY.

* - THESE STATIONS ARE NOT NWS STATIONS...THUS NOT UNDER NWS
QUALITY CONTROL.  THEY ALSO DO NOT REPORT WEATHER SUCH
AS PRECIPITATION OR FOG.

IAZ001>003-012>014-020>022-031>034-043>046-301900-
   NORTHWEST IOWA

CITY           SKY/WX    TMP DP  RH WIND       PRES   REMARKS
CARROLL *      CLOUDY    70  66  88 S12       30.06F
CHEROKEE *     PTSUNNY   69  65  87 S9        30.03F
DENISON *      CLOUDY    68  64  88 S10       30.04F
LE MARS *      CLOUDY    68  64  88 S14       30.03F
ORANGE CITY *  CLOUDY    70  64  83 S10       30.02F
SHELDON *      SUNNY     72  66  83 S13G18    30.00F
SPENCER        SUNNY     73  63  70 S13       30.02F
6HR MIN TEMP:  62; 6HR MAX TEMP:  73;

STORM LAKE *   PTSUNNY   70  66  88 S12       30.05F
$$

IAZ055>058-069>071-079>083-090>094-301900-
   SOUTHWEST IOWA

CITY           SKY/WX    TMP DP  RH WIND       PRES   REMARKS
ATLANTIC *     CLOUDY    72  66  83 S12       30.07F
AUDUBON *      PTSUNNY   70  64  83 S7G16     30.08F
CLARINDA *     CLOUDY    72  68  88 S7        30.09F
COUNCIL BLFS * CLOUDY    70  64  83 S13       30.07F
CRESTON *      CLOUDY    72  68  88 SW6       30.10F
HARLAN  *      CLOUDY    70 -38   1 S13       30.10S
LAMONI         MOSUNNY   75  68  78 CALM      30.08F
6HR MIN TEMP:  64; 6HR MAX TEMP:  76;

RED OAK *      CLOUDY    73  68  83 S8        30.07F
SHENANDOAH *   CLOUDY    73  68  83 S6        30.08F
$$

IAZ047>049-059>061-072>074-084-301900-
   CENTRAL IOWA

CITY           SKY/WX    TMP DP  RH WIND       PRES   REMARKS
AMES           CLOUDY    72  66  81 S9        30.07F
6HR MIN TEMP:  61; 6HR MAX TEMP:  72;

ANKENY *       CLOUDY    72  66  83 S6        30.07F
CHARITON *     CLOUDY    75  68  78 S3        30.08F
DES MOINES     CLOUDY    74  66  76 S6        30.07F
6HR MIN TEMP:  61; 6HR MAX TEMP:  74; 6HR PCP: TRACE;

GRINNELL*      CLOUDY    72  64  78 S3        30.09F
KNOXVILLE *    CLOUDY    70  66  88 VRB6      30.07F
MARSHALLTOWN   CLOUDY    70  66  87 S7        30.07F
6HR MIN TEMP:  62; 6HR MAX TEMP:  71;

PELLA *        CLOUDY    71  69  95 S3        30.09F FOG
PERRY *        CLOUDY    73  66  78 S7        30.07F
$$

IAZ004>006-015-016-023>025-035-036-301900-
   NORTH CENTRAL IOWA

CITY           SKY/WX    TMP DP  RH WIND       PRES   REMARKS
ALGONA *       CLOUDY    72  66  83 S13       30.04F
CLARION *      CLOUDY    70  64  83 S9        30.06F
ESTHERVILLE    SUNNY     73  65  75 S12       30.02F
6HR MIN TEMP:  60; 6HR MAX TEMP:  73;

FORT DODGE *   CLOUDY    72  64  78 S10       30.06F
MASON CITY     CLOUDY    71  64  78 S13       30.07F
6HR MIN TEMP:  56; 6HR MAX TEMP:  71;

FOREST CITY *  CLOUDY    70  64  83 S12       30.06S
IOWA FALLS *   CLOUDY    72  64  78 S7        30.08F
$$

IAZ007>011-017>019-026>030-037>042-050>054-066-301900-
   NORTHEAST IOWA

CITY           SKY/WX    TMP DP  RH WIND       PRES   REMARKS
CEDAR RAPIDS   CLOUDY    72  67  84 S6        30.08F
6HR MIN TEMP:  63; 6HR MAX TEMP:  72;

CHARLES CITY * CLOUDY    70  66  88 S8G16     30.08S
CLINTON *      CLOUDY    72  63  73 CALM      30.10F
DECORAH *      CLOUDY    70  64  83 VRB6G13   30.07S
DUBUQUE        PTSUNNY   71  63  75 S6        30.09F
6HR MIN TEMP:  57; 6HR MAX TEMP:  71;

MONTICELLO *   CLOUDY    72  64  78 VRB6      30.08F
OELWEIN *      CLOUDY    72  64  78 S5G12     30.09S
WATERLOO       CLOUDY    72  63  73 S9        30.06F
6HR MIN TEMP:  60; 6HR MAX TEMP:  72;

$$

IAZ064-065-067-068-078-301900-
   EAST CENTRAL IOWA

CITY           SKY/WX    TMP DP  RH WIND       PRES   REMARKS
DAVENPORT      CLOUDY    76  64  66 CALM      30.08F
6HR MIN TEMP:  61; 6HR MAX TEMP:  76;

IOWA CITY      CLOUDY    73  64  73 VRB3      30.08F
6HR MIN TEMP:  64; 6HR MAX TEMP:  73;

MT. PLEASANT * MOSUNNY   78  65  64 CALM      30.07F HX  80
MUSCATINE *    SUNNY     75  64  69 CALM      30.07F
QUAD CITIES    SUNNY     77  64  64 NE5       30.07F
6HR MIN TEMP:  63; 6HR MAX TEMP:  77;

$$

IAZ062-063-075>077-085>089-095>099-301900-
   SOUTHEAST IOWA

CITY           SKY/WX    TMP DP  RH WIND       PRES   REMARKS
BURLINGTON     SUNNY     78  69  73 VRB5      30.06F HX  80
6HR MIN TEMP:  66; 6HR MAX TEMP:  78;

FAIRFIELD *    CLOUDY    72  66  83 CALM      30.08F
FORT MADISON * SUNNY     77  72  83 CALM      30.07F
KEOKUK *       MOSUNNY   79  70  73 NE6       30.05F HX  81
OSKALOOSA *    CLOUDY    70  66  87 CALM      30.09F
CENTERVILLE *  MOSUNNY   73  68  83 CALM      30.09F
OTTUMWA        CLOUDY    71  68  90 S7        30.07F
6HR MIN TEMP:  65; 6HR MAX TEMP:  71;

WASHINGTON *     N/A    N/A N/A N/A MISG        N/A
$$

ABBREVIATIONS USED IN REMARKS
   TC - TEMPERATURES IN CELSIUS
  WCI - WIND CHILL INDEX
   HX - HEAT INDEX
  VSB - VISIBILITY
$$



USA.gov is the U.S. government's official web portal to all federal, state and local government web resources and services.